SL-16 DEB, 24299

Orbit data source: Space-Track

SL-16 DEB, 24299 is space debris in LEO originally from a launch on Wed, 04 Sep 1996 UTC launched from the Tyuratam Missile And Space Complex (TTMTR). Debris objects in space refer to the collection of defunct objects orbiting the Earth. Examples of debris include non-operational satellites, rocket bodies, and fragments generated from explosions, collisions, or faulty payload assembly.

Loading next visibility...
Identifier
24299, 1996-051C
Orbit
LEO
Country
Flag of CISCIS
Related business
Manufacturer
Yuzhnoe
Mission
Spacecraft
Bus & Motor
SEP MOTOR COVER, Unknown motor
Mass
~0 kg wet, ~1 kg dry
Launch date (UTC)
1996-09-04 (30 years ago)
Launch vehicle
Unknown
Launch site
Tyuratam Missile And Space Complex (TTMTR)
Object type
Payload
Rocket body
Debris
Shape & HBR
Unknown
Radar Cross Section
Medium (>0.1 m² and <1 m²)

Expand to show TLE details & history
Last TLE update: 2 days ago

TLE from 2 days ago
0 SL-16 DEB
1 24299U 96051C   26171.40871860  .00000092  00000-0  12173-3 0  9996
2 24299  71.0373  69.8818 0188983  10.5408 349.9568 13.75857024495165
Epoch: 2026-06-20T09:48Z
TLE epoch observation values (Epoch: 2026-06-20T09:48:33.287Z)
Latitude
-0.00004°
Longitude
14.11933°
Altitude
844.14 km
Speed
7.5 km/s
True Right ascension
04h 39m 31s
True Declination
0° 00' 00"
Sunlit
Object was in daylight at epoch
Visualization orbit readout
Latitude
Unknown
Longitude
Unknown
Altitude
Unknown
Speed
Unknown
Apparent Right ascension
Unknown
Apparent Declination
Unknown
Sunlit
N/A
Visualization observer readout
Local Sidereal Time
23:20:00
Azimuth
Unknown
Elevation
Unknown
Doppler factor
Unknown
Orbital elements
Apogee altitude
1,115.569 km
Perigee altitude
837.585 km
Semi-major axis
7,354.714 km
Eccentricity
0.0189
Inclination
71.0373°
RAAN
69.8818°
Arg. of periapsis
10.5408°
True anomaly
349.57016°
Mean anomaly
349.9568°
Eccentric anomaly
349.76439°
Mean motion
3.44108 °/min
Orbital period
104.62 mins
BSTAR
0.00012173
Loading maneuver chart data...
Computing Atmospheric mass density...
Loading historical data...
Loading historical data...
Loading historical data...
Loading historical data...
Loading historical data...
Loading historical data...
Loading historical data...

Documentation

Showing up to 5 results
|